Search your local weather  

 

Hazardous Weather Conditions

No active alerts for NEW YORK, NEW YORK

Current Conditions: NEW YORK, NEW YORK

Clear


30.0 F

Last Updated on Nov 29 2022, 02:51 AM EST
Humidity: 78%
Wind Speed: 0.0 mph
Barometer 30.16 in
Dewpoint: 24.1 F
Visibility: 10.00 mi
Precip: --
Heat Index: NA
Wind Chill: NA
Current conditions at:

TETERBORO (KTEB)

Lat: 40.85 Lon: -74.06

Local Radar Image active severe weather and emergency alerts image image weather storm and storm spotter reports image weather observation monitoring service image
Local
Radar
Active
Alerts
Storm Reports Weather
Monitoring

5 Day Forecast for NEW YORK, NEW YORK (10001)

Tuesday

Mostly Sunny

High 48 °F
Tuesday
Night
Mostly Cloudy

Low 40 °F
Wednesday

Rain

High 59 °F
Wednesday
Night
Mostly Cloudy

Low 35 °F
Thursday

Mostly Sunny

High 44 °F
Thursday
Night
Mostly Clear

Low 32 °F
Friday

Mostly Sunny

High 46 °F
Friday
Night
Mostly Cloudy

Low 39 °F
Saturday

Chance of Rain Showers
High 57 °F

Sign-up For Email & Text Message Weather Alert Notification Services



Advertise Here

Observation History for NEW YORK, NEW YORK


Time Wind
(mph)
Vis
(mi)
Weather Precip (in) Temperature (F) Relative
Humidity
Wind
Chill
(F)
Heat
Index
(F)
Pressure
Air Dwpt altimeter
(in)
sea level
(mb)
02:51 AM EST 0.0 10.00 Clear -- 30.0 24.1 78% NA NA 30.16 1021.3
11:51 PM EST 3.4 10.00 Clear -- 39.0 27.0 62% 36.9 NA 30.08 1018.6
08:51 PM EST 11.4 10.00 Clear -- 42.1 30.0 62% 35.6 NA 30.02 1016.6
06:51 PM EST NW 8.1 10.00 Clear -- 44.1 32.0 62% 39.6 NA 29.95 1014.2
04:51 PM EST NW 13.9 10.00 Clear -- 46.9 34.0 60% 41.0 NA 29.87 1011.5
02:51 PM EST 15.0 10.00 Mostly Clear -- 50.0 34.0 54% NA NA 29.79 1008.8
12:51 PM EST 10.00 Mostly Clear -- 51.1 35.1 54% NA NA 29.73 1006.8
11:51 AM EST 10.00 Cloudy -- 50.0 35.1 56% NA NA 29.71 1006.1
09:51 AM EST G 25.3 10.00 Clear Trace 50.0 36.0 58% NA NA 29.66 1004.4
07:31 AM EST 10.00 Drizzle Trace NULL % NA NA M
04:51 AM EST 8.1 10.00 Clear -- 51.1 45.0 79% NA NA 29.49 998.7

Regional Weather Observation

CALDWELL (KCDW)

Clear
30.9 F

MANHATTAN/DWNTWN (KJRB)

Clear
NULL F

MORRISTOWN MUNI (KMMU)

Clear
NULL F

NEWARK (KEWR)

Mostly Clear
39.0 F

LINDEN (KLDJ)

Clear
NULL F

NYC/CENTRAL PARK (KNYC)

Clear
39.0 F

Advertise Here


Advertise Here